Met observations

Date (UTC) Wind direction m/s kts. Vis. * Weather * Cloud * Temperature (°C) Dew point (°C) Air pressure (Hp)
19-02 14:50 1 02 VIS 2000 m FBL DZRA FEW 200ft OVC 500ft 7.1 6.9 997.3
19-02 14:00 5 09 VIS 5 km FBL RADZ FEW 300ft OVC 600ft 6.4 6.1 998.7
19-02 13:50 7 14 VIS 4000 m FBL RADZ FEW 300ft OVC 600ft 6.9 6.7 999.2
19-02 13:00 6 12 VIS 600 m FBL DZ VER VIS 100ft 6.8 6.7 1000.4
19-02 12:00 7 14 VIS 5 km FBL DZ FEW 200ft OVC 400ft 6.5 6.1 1001.8
19-02 11:00 6 11 VIS 8 km FBL DZ FEW 200ft OVC 400ft 6.5 6.1 1003.0
19-02 10:00 5 10 VIS 10 km FBL DZ FEW 400ft OVC 700ft 6.6 5.8 1004.0
19-02 09:00 5 09 VIS 10 km FBL DZ FEW 300ft OVC 600ft 6.3 5.8 1004.8
19-02 08:00 3 06 VIS 20 km FBL DZ FEW 400ft OVC 800ft 6.0 5.7 1004.8
19-02 07:00 7 13 VIS 20 km BKN 400ft OVC 1000ft 5.8 5.4 1005.3
19-02 06:00 7 13 VIS 20 km BKN 400ft OVC 1000ft 6.1 5.4 1005.1
19-02 05:00 6 12 VIS 20 km BKN 400ft OVC 1000ft 6.4 5.1 1004.8
19-02 04:00 8 16 VIS 20 km BKN 400ft OVC 1000ft 6.3 5.5 1004.8
19-02 03:00 10 19 VIS 20 km BKN 400ft OVC 1000ft 6.6 5.4 1004.5
19-02 00:00 7 14 VIS 20 km BKN 400ft OVC 1000ft 6.0 5.6 1003.7
18-02 23:00 6 12 VIS 20 km BKN 400ft OVC 1000ft 6.2 5.8 1003.4
18-02 22:00 5 10 VIS 20 km BKN 400ft OVC 1000ft 6.4 5.6 1003.5
18-02 21:00 3 06 VIS 20 km BKN 400ft OVC 1000ft 6.7 6.0 1003.0
18-02 20:00 5 09 VIS 20 km BKN 400ft OVC 1000ft 6.5 6.2 1002.8
18-02 19:00 2 03 VIS 20 km BKN 400ft OVC 1000ft 6.4 6.3 1001.5
18-02 18:00 3 05 VIS 10 km FBL RADZ BKN 400ft OVC 900ft 6.5 6.4 1001.1
18-02 17:00 2 03 VIS 10 km FBL RADZ BKN 400ft OVC 900ft 6.9 6.6 1000.8
18-02 16:00 4 08 VIS 10 km FBL RADZ BKN 400ft OVC 900ft 7.1 6.7 1000.8

Met data is updated every half hour and is for information only.
* Visibility, weather and cloud values are updated during the airport’s service hours only.
Flight planning documentation is available on opmet.dmi.dk.
For meteorological abbreviations, click here